COSMOS 2251 DEB, 39547

Orbit data source: Space-Track

COSMOS 2251 DEB, 39547 is space debris in LEO originally from a launch on Wed, 16 Jun 1993 UTC launched from the Plesetsk Missile And Space Complex (PKMTR). The debris from Iridium 33, an American commercial communications satellite, has been tracked extensively since its accidental collision with the defunct Russian satellite Cosmos 2251 in 2009. This event, occurring at high speed in low Earth orbit (LEO), generated thousands of pieces of space debris, significantly increasing the risk of further collisions. The Iridium 33 debris cloud has impacted space traffic management and orbital debris mitigation strategies, making it a subject of ongoing study in space situational awareness.

Loading next visibility...
Identifier
39547, 1993-036BUD
Orbit
LEO
Country
Flag of CISCIS
Related business
Manufacturer
Unknown
Mission
Spacecraft
Bus & Motor
Unknown
Mass
Unknown
Launch date (UTC)
1993-06-16 (33 years ago)
Launch vehicle
Unknown
Launch site
Plesetsk Missile And Space Complex (PKMTR)
Object type
Payload
Rocket body
Debris
Shape & HBR
Unknown shape, 0.1 m
Radar Cross Section
Small (<0.1 m²)

Expand to show TLE details & history
Last TLE update: 3 weeks ago

TLE from 3 weeks ago
0 COSMOS 2251 DEB
1 39547U 93036BUD 26049.23373905  .00051628  00000-0  29907-2 0  9993
2 39547  73.9998 239.3113 0003046 315.2619 161.0018 15.11947293650423
Epoch: 2026-02-18T05:36Z
TLE epoch observation values (Epoch: 2026-02-18T05:36:35.053Z)
Latitude
59.64493°
Longitude
157.82283°
Altitude
542.036 km
Speed
7.596 km/s
True Right ascension
02h 00m 41s
True Declination
59° 29' 24"
Sunlit
Object was in daylight at epoch
Visualization orbit readout
Latitude
Unknown
Longitude
Unknown
Altitude
Unknown
Speed
Unknown
Apparent Right ascension
Unknown
Apparent Declination
Unknown
Sunlit
N/A
Visualization observer readout
Local Sidereal Time
19:44:48
Azimuth
Unknown
Elevation
Unknown
Doppler factor
Unknown
Orbital elements
Apogee altitude
529.909 km
Perigee altitude
525.702 km
Semi-major axis
6,905.943 km
Eccentricity
0.0003
Inclination
73.9998°
RAAN
239.3113°
Arg. of periapsis
315.2619°
True anomaly
161.01316°
Mean anomaly
161.0018°
Eccentric anomaly
161.00748°
Mean motion
3.78189 °/min
Orbital period
95.19 mins
BSTAR
0.0029907
Loading maneuver chart data...
Computing Atmospheric mass density...

Documentation

Showing up to 5 results
|